Theta_e
322 321 324 318 303 305 301 304 310 310 311 317 317 317 315 317 312 310 332 337 342 341 340 342 345 348 346 347 346 346 345 344 343 342 340 340 338 337 342 343 343 345 345 346 344 342 340 337 336
319 322 320 311 298 296 300 307 306 310 316 319 316 315 315 314 325 325 331 340 342 340 339 340 343 347 346 346 346 345 345 343 341 340 338 338 337 337 341 342 343 344 345 344 342 340 338 336 335
320 322 310 303 299 294 297 306 308 313 317 317 318 321 319 319 326 328 335 340 341 339 339 340 343 346 346 346 346 344 344 343 341 338 338 337 337 338 338 341 343 343 343 343 341 339 337 335 334
319 314 310 299 296 300 301 305 310 311 316 319 319 316 323 328 329 333 337 340 338 338 339 341 343 346 345 345 345 344 342 342 341 340 338 337 338 338 337 339 341 342 342 342 340 337 336 334 333
318 311 299 297 297 300 305 307 310 311 313 316 319 316 320 328 333 336 337 339 338 338 339 342 342 343 343 342 342 342 340 339 340 340 338 339 338 340 339 338 340 341 341 341 338 336 334 333 332
307 307 295 293 296 300 303 307 307 311 313 314 315 317 321 329 332 334 336 338 339 337 337 339 335 337 338 339 338 339 339 338 339 340 340 338 339 340 340 340 340 340 340 340 338 335 334 332 330
305 301 296 296 296 297 301 308 304 306 311 313 317 315 323 326 333 336 338 338 337 337 336 337 336 333 332 334 335 337 338 338 339 340 339 338 338 339 341 340 340 339 340 339 337 335 333 331 329
309 304 296 297 296 296 305 307 307 306 307 319 322 314 317 326 334 337 337 336 336 334 334 334 334 333 332 332 330 333 335 336 337 336 334 333 334 335 335 334 338 339 338 338 338 336 334 331 328
310 298 294 296 297 300 307 305 310 312 309 318 321 322 323 330 335 333 332 332 331 332 332 332 331 331 331 331 329 329 331 332 331 330 328 329 335 335 333 330 334 336 338 338 336 336 333 330 328
305 298 298 302 302 301 305 307 307 308 309 311 315 321 325 328 331 329 328 327 329 329 330 330 330 328 330 329 331 335 334 334 334 335 333 334 334 334 332 327 328 331 334 336 336 334 329 325 324
303 298 301 302 302 302 304 306 304 304 303 303 312 317 322 326 328 328 329 329 328 331 331 328 330 330 329 328 330 334 336 337 334 334 332 331 333 334 332 332 331 333 328 334 334 330 327 328 326
297 298 298 299 301 300 302 306 302 299 298 312 316 320 319 322 323 324 327 330 330 330 330 328 329 330 330 329 329 332 332 334 334 335 332 329 330 333 332 331 332 331 331 332 331 333 331 329 328
295 295 297 298 298 300 303 303 303 298 301 309 305 305 304 305 308 309 312 313 320 330 330 329 330 329 330 329 328 329 331 331 332 333 333 331 329 329 330 330 330 331 330 330 330 329 329 327 327
296 296 297 298 297 298 298 300 302 299 301 304 302 301 301 302 303 305 307 309 311 320 330 331 330 330 331 331 329 329 329 330 329 333 332 332 329 330 330 329 328 328 328 329 328 326 326 325 325
296 292 295 296 297 297 299 297 294 298 301 299 301 301 300 300 300 301 304 306 308 312 317 327 332 332 331 331 331 331 331 329 330 329 329 331 329 328 326 327 327 327 327 327 328 327 326 325 325
293 294 290 295 296 296 298 290 294 298 299 298 297 299 299 298 298 299 301 302 306 309 308 313 322 331 331 330 330 330 331 330 331 330 330 329 328 328 326 325 325 327 325 325 324 324 323 323 323
294 288 289 291 296 295 295 291 294 297 297 297 297 296 296 296 297 297 299 300 302 305 308 307 312 315 318 331 331 331 330 329 331 331 328 329 327 327 327 326 325 326 324 323 322 322 322 320 320
287 288 289 288 292 294 291 290 293 295 296 296 296 297 296 294 294 296 298 300 301 302 304 307 305 307 311 322 330 329 329 329 329 327 327 326 328 327 326 326 326 325 324 323 322 320 320 320 319
291 289 288 290 292 291 290 289 291 293 294 294 295 295 295 295 297 297 297 298 300 300 300 302 304 304 307 313 323 326 325 327 329 328 325 325 325 327 327 325 325 324 324 322 323 321 319 318 318
291 289 288 290 292 291 290 288 291 293 292 293 293 294 294 295 296 297 297 297 297 299 299 299 300 302 304 306 310 318 326 328 327 328 326 326 325 324 324 324 324 325 324 322 321 321 319 318 316
290 287 286 286 291 291 290 288 289 292 293 294 294 295 295 294 294 295 296 296 298 297 298 298 299 300 303 303 307 314 328 327 325 325 325 325 325 325 324 323 324 323 324 322 321 321 319 316 316
287 291 289 288 287 284 289 283 288 291 291 292 293 293 293 294 295 295 296 296 297 297 299 299 299 300 301 302 304 305 309 321 324 324 326 324 325 325 326 325 324 324 324 323 323 323 321 319 315
288 291 288 288 287 286 286 283 287 291 289 291 292 292 293 294 294 295 295 295 296 297 298 299 299 299 300 301 302 303 306 312 320 326 325 324 325 325 325 325 325 323 323 323 323 322 321 320 317
293 288 288 287 287 281 285 283 286 288 289 290 292 292 293 293 294 295 296 296 295 296 296 297 298 298 299 300 300 301 302 304 308 317 324 324 323 324 325 324 324 323 322 322 322 322 320 319 317
291 287 283 281 281 280 284 282 286 289 289 290 290 291 292 293 293 294 294 294 294 294 294 294 295 295 297 298 299 300 301 303 305 307 312 323 323 322 322 323 323 323 323 323 323 321 320 319 317
287 286 281 275 278 280 284 280 286 291 291 292 292 291 292 292 293 293 293 294 293 293 293 292 293 293 294 296 297 300 301 303 304 306 308 310 323 323 323 322 322 322 323 322 321 321 320 320 317
287 284 287 280 280 277 283 285 288 290 290 292 291 291 291 292 292 292 293 293 292 293 291 291 291 291 293 294 296 298 301 303 304 306 308 309 314 323 323 323 322 322 321 321 321 320 319 319 318
289 290 282 283 276 276 282 282 284 286 288 290 290 289 291 292 292 292 292 293 291 292 291 291 290 290 291 293 295 297 299 302 304 306 308 310 312 322 322 322 322 322 322 321 320 319 319 318 318
287 285 285 284 282 277 277 283 289 288 289 289 290 290 290 291 291 291 291 292 292 291 290 289 289 289 290 291 293 295 297 299 302 305 310 313 313 320 320 320 318 313 311 311 317 317 317 317 316
287 285 285 281 279 281 278 281 290 290 290 290 291 291 291 291 290 291 291 291 291 290 289 288 288 288 289 290 292 293 294 296 298 299 303 305 306 304 305 304 304 302 302 303 305 304 304 304 302
Wind_Speed
14 10 7 6 7 7 13 13 9 6 5 1 5 3 5 10 3 3 9 6 22 19 18 17 14 14 16 16 16 15 15 15 15 14 12 11 8 8 10 8 7 9 13 20 22 21 21 19 19
8 9 6 5 7 12 10 14 7 10 7 2 2 3 5 6 7 8 11 11 21 19 18 18 13 15 16 15 15 15 15 15 15 14 12 9 8 8 10 9 7 11 17 21 21 20 20 19 18
11 4 6 5 11 14 10 4 7 2 2 3 2 3 4 5 5 11 10 19 16 18 17 17 15 17 16 15 14 14 15 15 13 12 11 9 9 8 8 8 8 12 16 20 19 19 19 18 17
5 6 4 10 14 10 12 4 9 5 5 3 4 5 6 5 6 5 15 20 17 15 14 17 17 17 15 14 14 13 13 13 11 11 11 9 9 8 7 7 7 11 16 19 18 17 17 17 17
7 3 8 9 13 13 2 12 2 11 7 2 3 4 5 5 5 12 17 13 15 12 14 16 15 17 14 14 14 14 11 9 11 9 8 8 7 7 8 8 8 9 15 18 17 16 16 15 16
5 4 7 10 12 4 6 2 10 12 5 1 4 2 7 1 7 12 14 14 14 13 12 15 12 11 12 11 10 9 9 7 9 8 8 7 9 8 8 10 9 8 13 18 18 15 15 14 14
9 5 10 10 9 6 3 10 11 10 12 0 6 8 6 5 11 11 12 10 13 13 10 13 15 13 9 11 9 9 8 7 7 6 6 7 9 9 9 10 10 10 12 17 18 15 14 13 13
6 4 6 6 9 3 8 10 6 7 8 7 8 5 4 9 10 10 11 11 10 11 9 12 15 14 12 11 9 8 6 7 7 8 6 8 8 9 9 9 8 10 11 15 15 15 12 12 12
4 5 6 3 4 5 9 10 7 6 8 4 4 8 5 13 10 10 10 10 8 8 8 5 10 12 13 11 8 7 7 7 10 9 8 10 6 6 9 8 8 8 10 15 15 15 12 10 9
5 4 8 5 6 8 8 7 13 10 5 9 9 8 3 11 9 10 9 8 10 10 11 5 10 9 12 9 10 7 10 8 8 8 9 6 8 5 5 8 8 9 7 14 14 14 13 9 6
5 6 4 2 7 9 8 5 15 15 12 18 16 12 5 7 7 9 12 13 11 13 13 9 8 10 11 8 8 4 4 4 6 8 6 4 6 6 4 5 5 6 6 7 9 8 5 7 5
1 3 4 5 7 8 7 9 11 15 10 15 13 10 5 5 4 6 10 14 14 14 16 11 8 9 11 7 7 7 5 4 4 4 6 4 3 4 2 3 5 4 3 7 5 5 5 3 5
6 5 5 7 6 7 10 3 4 17 14 16 17 17 16 16 12 12 9 14 11 16 15 12 12 8 10 9 8 7 7 5 7 4 5 4 4 5 1 2 3 3 4 5 4 4 4 5 4
3 4 9 9 7 1 8 7 7 16 10 13 14 15 16 16 17 15 18 14 12 10 11 14 14 10 9 7 9 7 7 5 6 7 5 6 4 6 4 2 3 3 3 3 3 4 4 3 4
1 3 2 14 10 4 9 3 10 12 7 11 12 13 14 15 16 17 13 15 14 15 15 8 14 13 6 8 6 7 6 8 4 6 7 7 7 5 6 5 3 4 3 3 2 3 4 4 3
3 4 6 11 13 3 6 6 11 11 7 9 11 10 11 15 16 15 13 11 14 15 17 12 12 11 8 8 5 5 7 6 7 3 7 9 9 9 7 5 4 5 4 4 4 4 4 4 4
4 7 7 2 13 6 4 6 11 10 8 9 10 10 11 11 13 13 15 14 14 14 14 15 13 12 10 7 5 8 8 4 5 5 4 10 10 9 8 6 5 5 5 5 5 4 4 4 3
9 8 4 7 10 8 5 6 7 9 9 9 9 10 10 11 16 15 13 13 12 14 13 10 11 13 10 7 4 3 2 5 4 6 4 5 8 9 8 6 7 6 6 5 5 6 5 4 4
6 7 8 3 7 4 5 5 7 8 9 9 10 11 12 12 10 10 13 13 14 14 14 14 11 11 9 5 2 2 3 6 7 7 9 7 4 8 9 4 5 7 7 8 7 6 6 5 2
6 8 8 0 5 7 1 2 4 7 9 10 10 11 12 12 12 13 14 14 13 15 15 14 13 12 8 6 4 4 3 3 4 6 9 11 9 8 6 7 7 8 7 8 8 8 5 5 6
1 9 10 7 10 6 6 9 7 3 5 8 10 10 11 13 14 15 16 16 16 14 13 13 13 12 10 8 6 6 5 2 4 5 7 9 11 11 12 11 7 6 8 7 9 10 10 6 5
3 9 8 6 5 4 3 4 8 7 3 8 10 10 10 12 13 12 13 14 13 13 13 12 13 12 10 11 8 8 6 5 5 5 6 7 12 13 14 13 12 13 8 10 8 8 8 8 6
5 9 4 5 5 6 6 6 9 7 6 7 10 10 11 11 11 13 13 13 12 12 13 12 12 12 12 12 10 8 8 6 7 5 10 9 9 11 11 13 12 11 8 10 10 7 9 8 8
13 5 4 3 2 3 2 5 4 3 3 5 8 9 10 11 11 12 13 13 12 13 13 13 13 12 11 12 12 11 10 10 7 8 7 6 6 7 12 12 10 10 9 9 8 8 9 9 6
12 6 0 3 2 3 2 5 5 5 3 5 7 7 8 9 11 12 14 14 14 14 14 13 14 14 12 12 11 11 11 10 10 8 7 6 5 5 9 9 10 9 11 11 10 10 11 10 10
7 6 4 5 5 6 4 5 5 3 2 3 4 6 7 9 9 11 12 12 13 14 14 13 13 13 13 12 12 10 11 7 7 7 6 6 6 6 6 8 8 8 10 9 8 8 8 8 9
3 5 2 3 3 4 1 4 5 2 6 6 5 5 7 9 10 11 11 11 12 12 12 12 13 13 12 12 12 11 10 10 9 10 7 6 9 3 6 8 8 8 8 7 8 7 8 8 8
4 1 2 1 5 6 0 4 3 4 2 3 4 5 7 8 10 10 10 10 10 12 11 11 11 12 12 12 10 10 11 10 10 10 9 8 7 5 4 6 7 7 7 7 7 6 6 6 6
2 1 1 2 2 4 6 2 3 3 4 4 4 4 7 8 9 9 10 10 9 9 10 11 11 12 11 11 10 9 9 10 10 9 8 7 6 6 3 4 1 5 8 7 1 1 3 5 2
4 1 1 2 3 2 3 7 2 1 3 5 6 4 5 6 8 9 9 10 10 10 10 10 10 11 11 11 10 9 9 9 8 8 9 9 9 9 8 9 8 9 8 8 9 8 8 9 9
Wind_Direction
313 318 280 255 237 232 251 239 244 267 224 94 328 276 222 19 340 40 152 131 135 148 144 156 153 144 137 135 139 139 140 134 131 125 120 120 116 112 90 93 87 102 115 119 111 109 108 109 107
314 300 240 264 248 238 237 230 196 245 36 322 174 217 224 99 56 123 133 164 150 147 152 151 150 142 138 138 137 142 141 136 131 133 130 129 127 123 102 94 97 120 121 118 114 115 114 113 112
267 250 248 231 241 247 258 57 257 78 241 247 227 290 11 73 67 145 122 140 154 145 153 139 147 139 139 141 141 142 138 137 133 142 140 143 138 137 117 100 101 133 125 117 117 116 116 117 116
233 178 230 252 253 250 299 309 334 291 196 215 276 172 106 40 139 107 150 133 154 146 143 136 143 140 144 146 141 139 138 129 143 144 146 144 143 133 131 116 105 138 131 119 117 119 119 120 119
229 250 235 242 266 271 317 313 297 284 254 236 215 160 88 77 93 135 142 140 149 141 136 147 141 139 142 140 140 137 133 137 135 146 151 142 165 141 125 127 112 135 128 124 120 122 122 122 123
217 282 236 246 247 171 272 296 305 277 270 238 243 238 90 27 140 136 144 142 146 138 147 141 129 128 130 122 123 124 129 143 142 146 136 136 151 135 116 131 117 126 141 129 127 129 127 127 125
278 254 272 283 276 264 348 336 270 283 296 170 352 276 79 118 112 144 136 141 141 138 152 148 150 135 132 136 135 133 135 137 132 116 129 129 133 111 98 123 118 115 144 134 129 130 130 129 126
289 276 281 259 307 278 14 314 326 273 266 352 7 355 97 130 140 132 133 133 133 144 151 152 156 159 159 158 137 141 138 128 120 105 98 115 121 113 106 112 110 114 133 140 134 132 134 133 129
274 256 260 25 310 24 6 334 13 320 256 59 10 11 358 133 130 132 130 128 134 145 148 155 150 173 153 164 147 154 139 124 113 114 114 142 134 147 151 88 108 105 121 148 141 134 133 122 121
294 267 39 21 19 353 321 358 355 294 189 30 354 18 9 143 158 156 149 147 152 146 153 171 151 173 155 172 152 179 158 166 164 150 167 160 154 127 108 90 82 70 86 147 145 130 125 146 152
8 5 32 83 355 336 309 356 32 2 44 347 330 324 348 156 183 173 177 162 160 162 159 174 169 170 166 189 158 155 165 169 162 166 182 145 125 135 138 140 148 133 172 149 136 129 161 202 164
185 32 346 352 330 322 331 306 78 46 8 10 345 43 354 56 280 218 206 181 174 173 169 167 190 158 195 167 166 164 172 161 162 167 172 167 153 142 199 170 157 153 164 148 156 176 187 201 193
40 24 1 349 310 306 311 325 59 28 7 48 29 38 39 38 30 20 16 21 333 184 175 178 178 171 187 152 179 190 171 185 176 149 186 174 175 166 121 293 168 172 171 156 178 170 193 198 199
57 31 40 15 359 355 328 38 340 5 12 57 41 45 39 40 32 19 14 15 8 348 190 171 187 186 190 179 179 183 186 175 185 165 177 178 188 182 166 239 199 171 208 191 178 188 181 183 203
119 273 314 21 11 18 327 140 20 348 35 39 62 33 42 43 31 32 11 357 355 3 4 336 185 193 192 180 189 174 200 179 186 183 185 181 193 216 191 206 213 191 192 185 188 179 214 208 197
263 245 297 39 0 26 308 94 23 2 15 42 48 47 34 21 38 33 26 316 11 14 8 357 350 180 186 195 194 220 192 203 174 216 180 184 200 183 198 207 206 194 186 190 187 187 204 223 215
68 7 350 102 17 346 323 40 21 14 24 39 42 46 35 18 23 26 16 5 13 9 17 1 6 9 3 236 217 204 206 218 178 187 183 187 198 194 200 198 206 199 194 201 199 193 215 209 217
346 349 357 360 5 13 54 65 42 31 34 34 37 36 35 33 26 16 355 4 12 21 14 11 6 6 352 317 242 219 227 221 161 173 192 197 199 198 203 211 202 200 208 203 202 203 200 227 222
334 323 338 25 353 320 39 56 48 48 38 39 30 30 27 31 32 16 8 7 1 22 8 4 360 359 359 353 358 271 212 225 190 184 179 186 203 199 196 223 220 200 218 218 206 211 211 208 219
356 352 354 276 3 296 242 104 81 51 56 41 31 28 20 12 16 14 11 7 3 13 359 352 355 352 356 354 336 294 208 196 204 206 187 197 191 179 194 210 216 204 213 222 218 210 209 220 178
73 12 342 313 324 259 272 228 200 138 68 57 45 35 24 14 5 5 4 7 2 1 345 344 346 340 340 345 316 306 239 197 196 200 200 194 199 201 189 210 211 230 207 213 218 220 213 208 193
349 355 318 304 282 323 224 343 186 159 135 52 35 28 25 16 4 2 1 360 357 354 346 344 342 338 338 340 335 335 309 251 197 175 201 203 199 204 203 206 201 211 204 214 210 205 215 218 220
356 330 309 308 283 311 190 263 95 168 204 31 22 21 18 16 6 358 5 358 354 353 348 343 342 338 336 339 338 335 319 316 315 214 199 198 211 213 208 216 209 211 210 217 207 201 207 213 222
312 295 239 268 296 235 80 273 140 159 15 355 13 17 16 10 8 7 1 358 355 353 352 346 342 339 338 335 332 324 321 318 326 314 212 204 203 206 215 215 217 212 216 217 218 216 206 207 214
358 345 297 212 215 351 125 260 347 118 77 4 349 359 2 359 2 0 3 356 354 354 353 346 343 339 339 330 321 317 310 309 304 306 322 230 203 206 212 207 213 216 214 217 215 220 218 214 218
8 2 19 308 340 337 144 247 83 103 147 332 318 329 341 356 358 356 355 359 356 351 352 347 344 338 335 330 322 312 305 296 292 293 308 310 238 209 196 208 221 222 218 219 208 216 210 210 215
352 39 351 286 182 249 242 154 147 193 254 267 317 317 353 357 356 353 351 355 352 352 355 346 341 337 335 330 322 318 311 306 299 296 290 292 303 194 196 203 214 221 220 213 207 214 216 207 218
338 36 224 181 337 310 108 280 15 198 245 308 294 333 351 354 353 351 353 351 357 350 352 345 346 340 334 333 330 323 319 309 303 296 285 270 276 266 199 208 211 224 215 210 213 227 229 218 226
172 91 21 295 315 318 317 69 119 165 4 323 304 332 344 347 349 350 351 351 355 353 357 352 349 345 342 337 331 332 331 327 324 326 325 301 256 264 210 244 295 51 57 33 10 290 267 230 273
289 279 249 304 113 253 295 283 111 114 320 301 293 302 340 343 347 349 351 350 348 358 0 355 352 347 343 339 337 346 349 353 360 5 13 28 48 46 61 65 67 64 54 50 53 59 54 64 62